Location: Buena Vista Beach
(41.8098°N, 81.1279°W)
Time: 08:38:32
(UTC+00:00)

Cosmos 292 Rocket - Pass Details

Date: 29 October 2020
Orbit: 672 x 695 km, 74.0° (Epoch: 26 November)

Event Time Altitude Azimuth Distance (km) Brightness Sun altitude
Rises 22:44:41 0° 202° (SSW) 3,023 7.6 -4.9°
Reaches altitude 10° 22:46:58 10° 203° (SSW) 2,116 6.9 -5.3°
Maximum altitude 22:51:44 78° 290° (WNW) 705 4.0 -6.2°
Drops below altitude 10° 22:56:35 10° 17° (NNE) 2,146 6.0 -7.1°
Sets 22:58:54 0° 19° (NNE) 3,070 6.8 -7.5°
